User: anonymous   Login
Location: Unspecified
(0.0000°N, 0.0000°E)
Time: 05:04:53
(UTC+00:00)
Language:

HEATHSAT - Orbit

View from above orbital plane
View from above orbital plane
View from above satellite
View from above satellite

Ground track
Ground track

The orbit data is extracted from the following two-line orbital elements,

1 22827U 93061E   18267.48772421 +.00000014 +00000-0 +22742-4 0  9995
2 22827 098.8708 252.0776 0009247 017.6212 093.8051 14.31268932304207
Epoch (UTC): 24 September 2018 11:42:19
Eccentricity: 0.0009247
inclination: 98.8708°
perigee height: 781 km
apogee height: 794 km
right ascension of ascending node: 252.0776°
argument of perigee: 17.6212°
revolutions per day: 14.31268932
mean anomaly at epoch: 93.8051°
orbit number at epoch: 30420

The dashed part of the orbit path shows where the satellite is in the earth's shadow,  

DLR